Regional Weather Roundup
Issued by NWS

Home | Current Version | Previous Version | Text Only | Print | Product List | Glossary Off
Versions: 1 2 3 4 5 6 7 8 9 10 11 12 13 14 15 16 17 18 19 20 21 22 23 24 25 26 27 28 29 30 31 32 33 34 35 36 37 38 39 40 41 42 43 44 45 46 47 48 49 50

000
ASUS43 KLOT 221309
RWRIL

ILLINOIS REGIONAL WEATHER ROUNDUP
NATIONAL WEATHER SERVICE CHICAGO/ROMEOVILLE IL
800 AM CDT SAT JUL 22 2017

NOTE: "FAIR" INDICATES FEW OR NO CLOUDS BELOW 12,000 FEET WITH NO
SIGNIFICANT WEATHER AND/OR OBSTRUCTIONS TO VISIBILITY.

* THESE STATIONS ARE NOT UNDER NWS QUALITY CONTROL. THEY ALSO MAY NOT
  REPORT WEATHER SUCH AS PRECIPITATION OR FOG.

ILZ001-002-007-009-015-016-024-221400-
NORTHWEST ILLINOIS

CITY           SKY/WX    TMP DP  RH WIND       PRES   REMARKS
MOLINE         CLOUDY    71  67  87 S13       29.77S
STERLING*      CLOUDY    69  67  93 SW8       29.77F
SAVANNA*       CLOUDY    69  68  95 N8        29.81R
$$

ILZ003-004-008-010-011-017-018-221400-
NORTH CENTRAL ILLINOIS

CITY           SKY/WX    TMP DP  RH WIND       PRES   REMARKS
ROCKFORD       CLOUDY    73  67  81 NW8       29.81R
FREEPORT*      CLOUDY    67  67 100 SW3       29.85R
ROCHELLE*      CLOUDY    69  66  89 SW12G20   29.78R
DE KALB*       CLOUDY    69  67  91 S16       29.75F
PERU*          DRIZZLE   69  65  88 S15       29.75F
$$

ILZ005-006-012>014-019>023-221400-
NORTHEAST ILLINOIS

CITY           SKY/WX    TMP DP  RH WIND       PRES   REMARKS
CHICAGO-OHARE  LGT RAIN  72  68  87 NE15      29.73F
CHICAGO-MIDWAY CLOUDY    73  67  81 S18G26    29.69F
AURORA         CLOUDY    71  67  87 S16G24    29.71F
LANSING*       RAIN      71  65  83 SW15      29.81F
JOLIET*        LGT RAIN  71  69  92 S10G20    29.76F
WAUKEGAN       CLOUDY    71  70  96 CALM      29.78F
DUPAGE AIRPORT CLOUDY    70  68  93 S17       29.70F
WHEELING       CLOUDY    72  71  97 VRB5      29.79F
MORRIS*        LGT RAIN  70  67  92 S8        29.76F
ROMEOVILLE*    CLOUDY    69  65  86 SW9G20    29.75F
NORTHERLY ISL    N/A     71  67  87 S10         N/A
$$

LMZ740>746-221400-
SOUTHERN LAKE MICHIGAN

STATION/POSITION SKY/WX   TEMP    WIND        PRES    VSBY  WAVE
                          AIR SEA DIR/SP/G                  HT/PER
                          (F)     (DEG/KT/KT) (MB)    (MI)  (FT/S)
SOUTHERN BUOY              71 70  230/  8/ 10 1008.4          3/ 5
WILMETTE HARBOR            72 72   60/  4/  6   N/A           1/ 3
HARRISON CRIB              73     180/ 13/ 15   N/A
BURNHAM HARBOR             71                   N/A
CALUMET HARBOR             72     180/  9/ 12 1007.9F
BURNS HARBOR               73     220/ 13/ 20 1009.8R
MICHIGAN CITY              73     260/ 14/ 16   N/A
MICHIGAN CITY 6N           74 74  260/ 10/ 16   N/A           3
ST. JOSEPH                 75 74  200/ 10/ 14 1009.1          4/ 5
$$

ILZ025>027-034>036-040-047-049-050-058-095>099-221400-
WEST-CENTRAL ILLINOIS

CITY           SKY/WX    TMP DP  RH WIND       PRES   REMARKS
QUINCY         CLOUDY    74  67  78 E15G29    29.93R
GALESBURG*     CLOUDY    68  67  99 SE7       29.85F
MACOMB*        RAIN      68  67  97 SE12G17   29.91F
JACKSONVILLE*  CLOUDY    70  67  89 NE17G31   29.97R
PITTSFIELD*    CLOUDY    76  69  78 NE15G25   29.97R
$$

ILZ028>032-037-038-041>044-048-051>054-059>061-221400-
CENTRAL ILLINOIS

CITY           SKY/WX    TMP DP  RH WIND       PRES   REMARKS
PONTIAC        LGT RAIN  70  69  98 S8        29.90F
BLOOMINGTON    RAIN      69  67  93 SE6       29.96R
DECATUR        CLOUDY    74  67  78 N22G31    29.97R
PEORIA         LGT RAIN  70  70 100 S8        29.89F
LACON*         LGT RAIN  68  68  99 S8        29.83F
LINCOLN*       TSTM      70  69  97 NE6G18    29.98R
SPRINGFIELD    TSTM      71  69  93 N16G29    29.99R FOG
TAYLORVILLE    CLOUDY    77  71  82 N22G38    29.97R
$$

ILZ033-039-045-046-055>057-062-063-221400-
EAST-CENTRAL ILLINOIS

CITY           SKY/WX    TMP DP  RH WIND       PRES   REMARKS
CHAMPAIGN      CLOUDY    76  68  76 NW15G23   29.94R
RANTOUL*       CLOUDY    75  71  86 NW16G22   29.95R
MATTOON        CLOUDY    81  77  88 NW12      29.90R HX  88
PARIS*         CLOUDY    78  76  94 W7        29.90R HX  81
$$

ILZ079-100>102-221400-
SOUTHWEST ILLINOIS

CITY           SKY/WX    TMP DP  RH WIND       PRES   REMARKS
ALTON          MOSUNNY   84  75  74 SW6       29.89R HX  92
BELLEVILLE     SUNNY     83  75  76 W7        29.90R HX  90
CAHOKIA*       SUNNY     85  73  67 SW6       29.88R HX  91
SPARTA*        SUNNY     83  74  75 SW8       29.91R HX  89
$$

ILZ064>066-069>071-074>076-080>082-084>086-088>090-092>094-221400-
SOUTH-CENTRAL ILLINOIS

CITY           SKY/WX    TMP DP  RH WIND       PRES   REMARKS
CARBONDALE     SUNNY     83  78  85 SW9       29.91R HX  93
CAIRO*         SUNNY     82  77  84 SW6       29.93S HX  89
EFFINGHAM*     SUNNY     84  76  78 SW10      29.91R HX  92
MARION         SUNNY     84  81  89 SW9       29.92R HX  98
MT. VERNON     SUNNY     83  76  79 SW6       29.91R HX  91
CENTRALIA*     SUNNY     84  77  79 SW8       29.90R HX  94
SALEM*         SUNNY     85  75  73 W6        29.90S HX  93
METROPOLIS*    SUNNY     84  77  80 SW7       29.93S HX  93
$$

ILZ067-068-072-073-078-083-087-091-221400-
SOUTHEAST ILLINOIS

CITY           SKY/WX    TMP DP  RH WIND       PRES   REMARKS
LAWRENCEVILLE  SUNNY     84  76  76 SW10      29.90R HX  93
FLORA*         SUNNY     84  77  79 SW6       29.90R HX  93
FAIRFIELD*     SUNNY     82  76  84 CALM      29.90R HX  89
HARRISBURG*    SUNNY     82  77  84 SW7       29.92R HX  91
ROBINSON*      SUNNY     82  76  82 W10G17    29.90R HX  88
CARMI*         SUNNY     82  77  87 SW5       29.91S HX  89
$$

ABBREVIATIONS USED IN REMARKS
   TC - TEMPERATURE IN CELSIUS
  WCI - WIND CHILL INDEX
   HX - HEAT INDEX
  VSB - VISIBILITY
$$





USA.gov is the U.S. government's official web portal to all federal, state and local government web resources and services.